Home   Weather   Pocatello   Past weeks

Flag for USA Past Weather in Pocatello, Idaho, USA — Yesterday and Last 2 Weeks

Now
65 °F

Passing clouds.


Feels Like: 65 °F
Forecast: 49 / 78 °F
Wind: 7 mph from Northeast

Location: Pocatello Regional Airport

Current Time: Sep 30, 2016 at 12:46:18 PM

Latest Report: Sep 30, 2016 at 10:53 AM


Visibility: 10 mi

Pressure: 30.09 "Hg (25.66 "Hg at 1357m altitude)

Humidity: 61%

Dew Point: 51 °F

Location of PocatelloLocation

Past Weather in Pocatello — Graph

°F

Pocatello Temperature Yesterday

Maximum temperature yesterday: 75 °F (at 12:53 PM)
Minimum temperature yesterday: 54 °F (at 7:53 AM)
Average temperature yesterday: 64 °F

High & Low Weather Summary for the Past Weeks

 TemperatureHumidityPressure
High83 °F (Sep 20, 4:53 PM)97% (Sep 16, 5:53 AM)30.49 "Hg (Sep 16, 5:53 AM)
Low36 °F (Sep 25, 7:53 AM)15% (Sep 17, 4:53 PM)29.72 "Hg (Sep 22, 2:53 PM)
Average58 °F61%30.06 "Hg
* Reported Sep 15 10:53 AM — Sep 30 10:53 AM, Pocatello, Weather by CustomWeather, © 2016

Note: Actual official high and low records may vary slightly from our data, if they occured in-between our weather recording intervals... More about our weather records

Advertising

Pocatello Weather History for the Previous 24 Hours

Scroll right to see more
 ConditionsComfort  
Time TempWeatherWind HumidityBarometerVisibility
10:53 AM
Fri, Sep 30
65 °FMild.7 mph61%30.09 "Hg10 mi
9:53 AM59 °FScattered clouds.6 mph72%30.11 "Hg10 mi
8:53 AM55 °FScattered clouds.3 mph80%30.11 "Hg10 mi
7:53 AM50 °FPassing clouds.5 mph89%30.11 "Hg10 mi
6:53 AM47 °FPassing clouds.3 mph93%30.11 "Hg10 mi
5:53 AM48 °FClear.9 mph93%30.09 "Hg10 mi
4:53 AM48 °FClear.3 mph89%30.06 "Hg10 mi
3:53 AM48 °FClear.6 mph89%30.08 "Hg10 mi
2:53 AM51 °FClear.No wind86%30.09 "Hg10 mi
1:53 AM54 °FClear.6 mph80%30.07 "Hg10 mi
11:53 PM
Thu, Sep 29
57 °FCool.7 mph72%30.09 "Hg10 mi
10:53 PM63 °FMild.No wind56%30.06 "Hg10 mi
9:53 PM67 °FClear.5 mph45%30.07 "Hg10 mi
8:53 PM65 °FPassing clouds.5 mph52%30.07 "Hg10 mi
7:53 PM66 °FPartly sunny.9 mph52%30.15 "Hg10 mi
6:53 PM71 °FPartly sunny.12 mph41%30.04 "Hg10 mi
3:53 PM73 °FBroken clouds.21 mph38%30.03 "Hg10 mi
1:53 PM75 °FPartly sunny.20 mph36%30.04 "Hg10 mi
12:53 PM75 °FBroken clouds.17 mph36%30.05 "Hg10 mi
Weather by CustomWeather, © 2016

See weather overviewHow to use our weather pages